"FILENAME","TIMESTAMP","SAMPLE","STATION","LATITUDE","LONGITUDE","SAMPLE_DATE","SAMPLE_TIME","DEPTH","DEPTH_UNITS","CHLOROPHYLLQ","CHLOROPHYLLV","CHLOROPHYLLU","DENSITYQ","DENSITYV","DENSITYU","DOQ","DOV","DOU","SALINITYQ","SALINITYV","SALINITYU","SUSOQ","SUSOV","SUSOU","TEMPQ","TEMPV","TEMPU","PHQ","PHV","PHU","OGQ","OGV","OGU","XMSQ","XMSV","XMSU",
"200511WQPL.csv","2008MAY29155944","1105052200","A1",  32.65933,-117.26200,"20051105",914,1,"m","",1.166,"ug/L","",24.3618,"sigma-t","",8.11746,"mg/L","",33.3324,"ppt","",,"","",16.5,"C","",8.283,"pH","",,"","",85,"%",
"200511WQPL.csv","2008MAY29155944","1105052201","A1",  32.65933,-117.26200,"20051105",914,12,"m","",4.1203,"ug/L","",25.0768,"sigma-t","",6.54629,"mg/L","",33.4033,"ppt","",,"","",13.4,"C","",8.114,"pH","",,"","",83,"%",
"200511WQPL.csv","2008MAY29155944","1105052202","A1",  32.65933,-117.26200,"20051105",914,18,"m","",3.0844,"ug/L","",25.2014,"sigma-t","",5.6792,"mg/L","",33.3946,"ppt","",,"","",12.7,"C","",8.046,"pH","",,"","",82,"%",
"200511WQPL.csv","2008MAY29155944","1105052203","A6",  32.69267,-117.26967,"20051105",958,1,"m","",1.625,"ug/L","",24.2468,"sigma-t","",7.97973,"mg/L","",33.3552,"ppt","",,"","",17,"C","",8.28,"pH","",,"","",83,"%",
"200511WQPL.csv","2008MAY29155944","1105052204","A6",  32.69267,-117.26967,"20051105",958,12,"m","",4.2819,"ug/L","",25.0007,"sigma-t","",6.50191,"mg/L","",33.4012,"ppt","",,"","",13.8,"C","",8.126,"pH","",,"","",83,"%",
"200511WQPL.csv","2008MAY29155944","1105052205","A6",  32.69267,-117.26967,"20051105",958,18,"m","",3.3637,"ug/L","",25.1201,"sigma-t","",5.9594,"mg/L","",33.3996,"ppt","",,"","",13.2,"C","",8.084,"pH","",,"","",84,"%",
"200511WQPL.csv","2008MAY29155944","1105052206","A7",  32.67550,-117.26683,"20051105",939,1,"m","",1.3177,"ug/L","",24.2914,"sigma-t","",7.87195,"mg/L","",33.3556,"ppt","",,"","",16.8,"C","",8.268,"pH","",,"","",84,"%",
"200511WQPL.csv","2008MAY29155944","1105052207","A7",  32.67550,-117.26683,"20051105",939,12,"m","",3.3073,"ug/L","",25.1774,"sigma-t","",6.16339,"mg/L","",33.4452,"ppt","",,"","",13.1,"C","",8.122,"pH","",,"","",84,"%",
"200511WQPL.csv","2008MAY29155944","1105052208","A7",  32.67550,-117.26683,"20051105",939,18,"m","",3.1239,"ug/L","",25.1912,"sigma-t","",5.75836,"mg/L","",33.3945,"ppt","",,"","",12.8,"C","",8.057,"pH","",,"","",84,"%",
"200511WQPL.csv","2008MAY29155944","1105052209","C4",  32.66583,-117.24967,"20051105",1111,1,"m","",1.1621,"ug/L","",24.2306,"sigma-t","",7.57153,"mg/L","",33.366,"ppt","",,"","",17.1,"C","",8.252,"pH","",,"","",79,"%",
"200511WQPL.csv","2008MAY29155944","1105052210","C4",  32.66583,-117.24967,"20051105",1111,3,"m","",1.3219,"ug/L","",24.334,"sigma-t","",7.78682,"mg/L","",33.3785,"ppt","",,"","",16.7,"C","",8.265,"pH","",,"","",80,"%",
"200511WQPL.csv","2008MAY29155944","1105052211","C4",  32.66583,-117.24967,"20051105",1111,9,"m","",1.4995,"ug/L","",24.9631,"sigma-t","",5.76089,"mg/L","",33.4362,"ppt","",,"","",14.1,"C","",8.091,"pH","",,"","",79,"%",
"200511WQPL.csv","2008MAY29155944","1105052212","C5",  32.67917,-117.25667,"20051105",1101,1,"m","",1.8768,"ug/L","",24.1966,"sigma-t","",7.68383,"mg/L","",33.361,"ppt","",,"","",17.3,"C","",8.274,"pH","",,"","",78,"%",
"200511WQPL.csv","2008MAY29155944","1105052213","C5",  32.67917,-117.25667,"20051105",1101,3,"m","",2.4801,"ug/L","",24.276,"sigma-t","",7.57452,"mg/L","",33.3798,"ppt","",,"","",17,"C","",8.258,"pH","",,"","",75,"%",
"200511WQPL.csv","2008MAY29155944","1105052214","C5",  32.67917,-117.25667,"20051105",1101,9,"m","",2.3035,"ug/L","",24.8622,"sigma-t","",5.11966,"mg/L","",33.4021,"ppt","",,"","",14.4,"C","",8.029,"pH","",,"","",31,"%",
"200511WQPL.csv","2008MAY29155944","1105052215","C6",  32.69367,-117.26133,"20051105",1050,1,"m","",5.2304,"ug/L","",24.2305,"sigma-t","",8.5738,"mg/L","",33.3566,"ppt","",,"","",17.1,"C","",8.302,"pH","",,"","",71,"%",
"200511WQPL.csv","2008MAY29155944","1105052216","C6",  32.69367,-117.26133,"20051105",1050,3,"m","",5.7986,"ug/L","",24.2638,"sigma-t","",8.45904,"mg/L","",33.3553,"ppt","",,"","",17,"C","",8.29,"pH","",,"","",71,"%",
"200511WQPL.csv","2008MAY29155944","1105052217","C6",  32.69367,-117.26133,"20051105",1050,9,"m","",2.097,"ug/L","",24.8172,"sigma-t","",5.83753,"mg/L","",33.4605,"ppt","",,"","",14.9,"C","",8.124,"pH","",,"","",78,"%",
"200511WQPL.csv","2008MAY29155944","1105052218","C7",  32.71633,-117.27217,"20051105",1012,1,"m","",3.8241,"ug/L","",24.1587,"sigma-t","",8.4455,"mg/L","",33.3181,"ppt","",,"","",17.3,"C","",8.31,"pH","",,"","",78,"%",
"200511WQPL.csv","2008MAY29155944","1105052219","C7",  32.71633,-117.27217,"20051105",1012,12,"m","",3.3988,"ug/L","",24.8709,"sigma-t","",6.13725,"mg/L","",33.4392,"ppt","",,"","",14.5,"C","",8.094,"pH","",,"","",80,"%",
"200511WQPL.csv","2008MAY29155944","1105052220","C7",  32.71633,-117.27217,"20051105",1012,18,"m","",1.9675,"ug/L","",25.1027,"sigma-t","",5.31653,"mg/L","",33.4136,"ppt","",,"","",13.3,"C","",8.026,"pH","",,"","",81,"%",
"200511WQPL.csv","2008MAY29155944","1105052221","C8",  32.73267,-117.27333,"20051105",1032,1,"m","",2.3478,"ug/L","",24.2958,"sigma-t","",7.8529,"mg/L","",33.3497,"ppt","",,"","",16.8,"C","",8.27,"pH","",,"","",78,"%",
"200511WQPL.csv","2008MAY29155944","1105052222","C8",  32.73267,-117.27333,"20051105",1032,12,"m","",9.2287,"ug/L","",24.5872,"sigma-t","",8.0557,"mg/L","",33.3512,"ppt","",,"","",15.5,"C","",8.26,"pH","",,"","",78,"%",
"200511WQPL.csv","2008MAY29155944","1105052223","C8",  32.73267,-117.27333,"20051105",1032,18,"m","",4.3544,"ug/L","",25.0511,"sigma-t","",6.26404,"mg/L","",33.4366,"ppt","",,"","",13.6,"C","",8.11,"pH","",,"","",78,"%",
"200511WQPL.csv","2008MAY29155944","1110052557","A1",  32.65933,-117.26200,"20051110",851,1,"m","",2.7372,"ug/L","",24.3806,"sigma-t","",7.79345,"mg/L","",33.3386,"ppt","",,"","",16.4,"C","",8.359,"pH","",,"","",82,"%",
"200511WQPL.csv","2008MAY29155944","1110052558","A1",  32.65933,-117.26200,"20051110",851,12,"m","",5.6336,"ug/L","",24.5037,"sigma-t","",7.84156,"mg/L","",33.347,"ppt","",,"","",15.9,"C","",8.336,"pH","",,"","",82,"%",
"200511WQPL.csv","2008MAY29155944","1110052559","A1",  32.65933,-117.26200,"20051110",851,18,"m","",1.7678,"ug/L","",24.5363,"sigma-t","",7.26753,"mg/L","",33.3484,"ppt","",,"","",15.7,"C","",8.286,"pH","",,"","",82,"%",
"200511WQPL.csv","2008MAY29155944","1110052560","A6",  32.69267,-117.26967,"20051110",940,1,"m","",2.5502,"ug/L","",24.378,"sigma-t","",8.01208,"mg/L","",33.3516,"ppt","",,"","",16.4,"C","",8.37,"pH","",,"","",83,"%",
"200511WQPL.csv","2008MAY29155944","1110052561","A6",  32.69267,-117.26967,"20051110",940,12,"m","",8.2737,"ug/L","",24.453,"sigma-t","",7.99175,"mg/L","",33.3599,"ppt","",,"","",16.1,"C","",8.357,"pH","",,"","",80,"%",
"200511WQPL.csv","2008MAY29155944","1110052562","A6",  32.69267,-117.26967,"20051110",940,18,"m","",4.4134,"ug/L","",24.5517,"sigma-t","",7.62728,"mg/L","",33.3725,"ppt","",,"","",15.8,"C","",8.323,"pH","",,"","",80,"%",
"200511WQPL.csv","2008MAY29155944","1110052563","A7",  32.67550,-117.26683,"20051110",918,1,"m","",4.4903,"ug/L","",24.3906,"sigma-t","",8.00104,"mg/L","",33.3475,"ppt","",,"","",16.4,"C","",8.356,"pH","",,"","",79,"%",
"200511WQPL.csv","2008MAY29155944","1110052564","A7",  32.67550,-117.26683,"20051110",918,12,"m","",8.7296,"ug/L","",24.4801,"sigma-t","",7.9043,"mg/L","",33.3597,"ppt","",,"","",16,"C","",8.339,"pH","",,"","",76,"%",
"200511WQPL.csv","2008MAY29155944","1110052565","A7",  32.67550,-117.26683,"20051110",918,18,"m","",2.9191,"ug/L","",24.5302,"sigma-t","",7.49128,"mg/L","",33.3526,"ppt","",,"","",15.8,"C","",8.296,"pH","",,"","",76,"%",
"200511WQPL.csv","2008MAY29155944","1110052566","C4",  32.66583,-117.24967,"20051110",1106,1,"m","",1.1035,"ug/L","",24.4124,"sigma-t","",7.57543,"mg/L","",33.3718,"ppt","",,"","",16.4,"C","",8.314,"pH","",,"","",75,"%",
"200511WQPL.csv","2008MAY29155944","1110052567","C4",  32.66583,-117.24967,"20051110",1106,3,"m","",2.3774,"ug/L","",24.465,"sigma-t","",7.69912,"mg/L","",33.3829,"ppt","",,"","",16.2,"C","",8.317,"pH","",,"","",74,"%",
"200511WQPL.csv","2008MAY29155944","1110052568","C4",  32.66583,-117.24967,"20051110",1106,9,"m","",4.9213,"ug/L","",24.505,"sigma-t","",7.62389,"mg/L","",33.3716,"ppt","",,"","",16,"C","",8.317,"pH","",,"","",74,"%",
"200511WQPL.csv","2008MAY29155944","1110052569","C5",  32.67917,-117.25667,"20051110",1055,1,"m","",1.0988,"ug/L","",24.4093,"sigma-t","",7.82682,"mg/L","",33.3502,"ppt","",,"","",16.3,"C","",8.337,"pH","",,"","",71,"%",
"200511WQPL.csv","2008MAY29155944","1110052570","C5",  32.67917,-117.25667,"20051110",1055,3,"m","",1.6627,"ug/L","",24.4486,"sigma-t","",7.80125,"mg/L","",33.3659,"ppt","",,"","",16.2,"C","",8.339,"pH","",,"","",74,"%",
"200511WQPL.csv","2008MAY29155944","1110052571","C5",  32.67917,-117.25667,"20051110",1055,9,"m","",3.9599,"ug/L","",24.4837,"sigma-t","",7.4331,"mg/L","",33.352,"ppt","",,"","",16,"C","",8.322,"pH","",,"","",77,"%",
"200511WQPL.csv","2008MAY29155944","1110052572","C6",  32.69367,-117.26133,"20051110",1042,1,"m","",1.8555,"ug/L","",24.3223,"sigma-t","",8.407,"mg/L","",33.3594,"ppt","",,"","",16.7,"C","",8.385,"pH","",,"","",79,"%",
"200511WQPL.csv","2008MAY29155944","1110052573","C6",  32.69367,-117.26133,"20051110",1042,3,"m","",4.0182,"ug/L","",24.378,"sigma-t","",8.24875,"mg/L","",33.3671,"ppt","",,"","",16.5,"C","",8.381,"pH","",,"","",78,"%",
"200511WQPL.csv","2008MAY29155944","1110052574","C6",  32.69367,-117.26133,"20051110",1042,9,"m","",1.4773,"ug/L","",24.5927,"sigma-t","",5.81134,"mg/L","",33.3929,"ppt","",,"","",15.6,"C","",8.2,"pH","",,"","",80,"%",
"200511WQPL.csv","2008MAY29155944","1110052575","C7",  32.71633,-117.27217,"20051110",1004,1,"m","",5.817,"ug/L","",24.2964,"sigma-t","",8.82164,"mg/L","",33.3493,"ppt","",,"","",16.8,"C","",8.437,"pH","",,"","",79,"%",
"200511WQPL.csv","2008MAY29155944","1110052576","C7",  32.71633,-117.27217,"20051110",1004,12,"m","",2.8296,"ug/L","",24.5136,"sigma-t","",7.18429,"mg/L","",33.3771,"ppt","",,"","",15.9,"C","",8.312,"pH","",,"","",83,"%",
"200511WQPL.csv","2008MAY29155944","1110052577","C7",  32.71633,-117.27217,"20051110",1004,18,"m","",.8396,"ug/L","",24.7777,"sigma-t","",5.59215,"mg/L","",33.3648,"ppt","",,"","",14.7,"C","",8.159,"pH","",,"","",83,"%",
"200511WQPL.csv","2008MAY29155944","1110052578","C8",  32.73267,-117.27333,"20051110",1024,1,"m","",2.1248,"ug/L","",24.3195,"sigma-t","",8.0366,"mg/L","",33.3538,"ppt","",,"","",16.7,"C","",8.387,"pH","",,"","",82,"%",
"200511WQPL.csv","2008MAY29155944","1110052579","C8",  32.73267,-117.27333,"20051110",1024,12,"m","",10.266,"ug/L","",24.5179,"sigma-t","",7.54802,"mg/L","",33.3819,"ppt","",,"","",15.9,"C","",8.328,"pH","",,"","",78,"%",
"200511WQPL.csv","2008MAY29155944","1110052580","C8",  32.73267,-117.27333,"20051110",1024,18,"m","",1.2639,"ug/L","",24.8307,"sigma-t","",6.40544,"mg/L","",33.395,"ppt","",,"","",14.6,"C","",8.218,"pH","",,"","",84,"%",
"200511WQPL.csv","2008MAY29155944","1116052620","A1",  32.65933,-117.26200,"20051116",930,1,"m","",2.0105,"ug/L","",24.391,"sigma-t","",7.21637,"mg/L","",33.3625,"ppt","",,"","",16.4,"C","",,"","",,"","",85,"%",
"200511WQPL.csv","2008MAY29155944","1116052621","A1",  32.65933,-117.26200,"20051116",930,12,"m","",4.3838,"ug/L","",24.6669,"sigma-t","",5.89617,"mg/L","",33.3758,"ppt","",,"","",15.2,"C","",,"","",,"","",84,"%",
"200511WQPL.csv","2008MAY29155944","1116052622","A1",  32.65933,-117.26200,"20051116",930,18,"m","",.6881,"ug/L","",25,"sigma-t","",4.5657,"mg/L","",33.4333,"ppt","",,"","",13.9,"C","",,"","",,"","",88,"%",
"200511WQPL.csv","2008MAY29155944","1116052623","A6",  32.69267,-117.26967,"20051116",1036,1,"m","",4.7661,"ug/L","",24.3114,"sigma-t","",7.40017,"mg/L","",33.3596,"ppt","",,"","",16.8,"C","",,"","",,"","",75,"%",
"200511WQPL.csv","2008MAY29155944","1116052624","A6",  32.69267,-117.26967,"20051116",1036,12,"m","",1.5154,"ug/L","",24.6836,"sigma-t","",5.0391,"mg/L","",33.3995,"ppt","",,"","",15.3,"C","",,"","",,"","",84,"%",
"200511WQPL.csv","2008MAY29155944","1116052625","A6",  32.69267,-117.26967,"20051116",1036,18,"m","",.5031,"ug/L","",25.0212,"sigma-t","",4.56981,"mg/L","",33.4036,"ppt","",,"","",13.7,"C","",,"","",,"","",88,"%",
"200511WQPL.csv","2008MAY29155944","1116052626","A7",  32.67550,-117.26683,"20051116",1015,1,"m","",6.3716,"ug/L","",24.3663,"sigma-t","",7.58585,"mg/L","",33.3597,"ppt","",,"","",16.5,"C","",,"","",,"","",76,"%",
"200511WQPL.csv","2008MAY29155944","1116052627","A7",  32.67550,-117.26683,"20051116",1015,12,"m","",3.3859,"ug/L","",24.8775,"sigma-t","",5.31493,"mg/L","",33.5191,"ppt","",,"","",14.8,"C","",,"","",,"","",87,"%",
"200511WQPL.csv","2008MAY29155944","1116052628","A7",  32.67550,-117.26683,"20051116",1015,18,"m","",.6314,"ug/L","",25.0378,"sigma-t","",4.69887,"mg/L","",33.4176,"ppt","",,"","",13.6,"C","",,"","",,"","",89,"%",
"200511WQPL.csv","2008MAY29155944","1116052629","C4",  32.66583,-117.24967,"20051116",1233,1,"m","",7.2182,"ug/L","",24.3652,"sigma-t","",6.6911,"mg/L","",33.3789,"ppt","",,"","",16.6,"C","",,"","",,"","",66,"%",
"200511WQPL.csv","2008MAY29155944","1116052630","C4",  32.66583,-117.24967,"20051116",1233,3,"m","",9.4158,"ug/L","",24.3983,"sigma-t","",6.86128,"mg/L","",33.3689,"ppt","",,"","",16.4,"C","",,"","",,"","",69,"%",
"200511WQPL.csv","2008MAY29155944","1116052631","C4",  32.66583,-117.24967,"20051116",1233,9,"m","",2.4805,"ug/L","",24.5067,"sigma-t","",5.89765,"mg/L","",33.3688,"ppt","",,"","",15.9,"C","",,"","",,"","",79,"%",
"200511WQPL.csv","2008MAY29155944","1116052632","C5",  32.67917,-117.25667,"20051116",1221,1,"m","",1.2269,"ug/L","",24.2266,"sigma-t","",5.44893,"mg/L","",33.3769,"ppt","",,"","",17.2,"C","",,"","",,"","",69,"%",
"200511WQPL.csv","2008MAY29155944","1116052633","C5",  32.67917,-117.25667,"20051116",1221,3,"m","",2.3568,"ug/L","",24.3936,"sigma-t","",5.37381,"mg/L","",33.3916,"ppt","",,"","",16.5,"C","",,"","",,"","",66,"%",
"200511WQPL.csv","2008MAY29155944","1116052634","C5",  32.67917,-117.25667,"20051116",1221,9,"m","",1.0633,"ug/L","",24.6156,"sigma-t","",4.32441,"mg/L","",33.3723,"ppt","",,"","",15.5,"C","",,"","",,"","",54,"%",
"200511WQPL.csv","2008MAY29155944","1116052635","C6",  32.69367,-117.26133,"20051116",1207,1,"m","",2.4743,"ug/L","",24.2762,"sigma-t","",6.73313,"mg/L","",33.3672,"ppt","",,"","",16.9,"C","",,"","",,"","",74,"%",
"200511WQPL.csv","2008MAY29155944","1116052636","C6",  32.69367,-117.26133,"20051116",1207,3,"m","",3.475,"ug/L","",24.3015,"sigma-t","",6.72595,"mg/L","",33.3697,"ppt","",,"","",16.8,"C","",,"","",,"","",74,"%",
"200511WQPL.csv","2008MAY29155944","1116052637","C6",  32.69367,-117.26133,"20051116",1207,9,"m","",.8882,"ug/L","",24.5822,"sigma-t","",4.07459,"mg/L","",33.3787,"ppt","",,"","",15.6,"C","",,"","",,"","",73,"%",
"200511WQPL.csv","2008MAY29155944","1116052638","C7",  32.71633,-117.27217,"20051116",1101,1,"m","",.8983,"ug/L","",24.3161,"sigma-t","",7.32567,"mg/L","",33.3596,"ppt","",,"","",16.7,"C","",,"","",,"","",81,"%",
"200511WQPL.csv","2008MAY29155944","1116052639","C7",  32.71633,-117.27217,"20051116",1101,12,"m","",6.2268,"ug/L","",24.6943,"sigma-t","",6.15991,"mg/L","",33.4033,"ppt","",,"","",15.2,"C","",,"","",,"","",82,"%",
"200511WQPL.csv","2008MAY29155944","1116052640","C7",  32.71633,-117.27217,"20051116",1101,18,"m","",.6883,"ug/L","",25.0852,"sigma-t","",4.66825,"mg/L","",33.4149,"ppt","",,"","",13.4,"C","",,"","",,"","",88,"%",
"200511WQPL.csv","2008MAY29155944","1116052641","C8",  32.73267,-117.27333,"20051116",1121,1,"m","",1.399,"ug/L","",24.2739,"sigma-t","",7.40594,"mg/L","",33.3662,"ppt","",,"","",16.9,"C","",,"","",,"","",84,"%",
"200511WQPL.csv","2008MAY29155944","1116052642","C8",  32.73267,-117.27333,"20051116",1121,12,"m","",8.6311,"ug/L","",24.522,"sigma-t","",7.12977,"mg/L","",33.3652,"ppt","",,"","",15.9,"C","",,"","",,"","",82,"%",
"200511WQPL.csv","2008MAY29155944","1116052643","C8",  32.73267,-117.27333,"20051116",1121,18,"m","",.7177,"ug/L","",25.0402,"sigma-t","",4.99798,"mg/L","",33.4188,"ppt","",,"","",13.6,"C","",,"","",,"","",86,"%",
"200511WQPL.csv","2008MAY29155944","1122052664","A1",  32.65933,-117.26200,"20051122",822,1,"m","",1.5171,"ug/L","",24.4372,"sigma-t","",6.8981,"mg/L","",33.3687,"ppt","",,"","",16.2,"C","",8.174,"pH","",,"","",88,"%",
"200511WQPL.csv","2008MAY29155944","1122052665","A1",  32.65933,-117.26200,"20051122",822,12,"m","",1.6981,"ug/L","",24.9497,"sigma-t","",5.53612,"mg/L","",33.3742,"ppt","",,"","",13.9,"C","",8.028,"pH","",,"","",85,"%",
"200511WQPL.csv","2008MAY29155944","1122052666","A1",  32.65933,-117.26200,"20051122",822,18,"m","",1.4036,"ug/L","",25.0526,"sigma-t","",5.13665,"mg/L","",33.3813,"ppt","",,"","",13.4,"C","",7.997,"pH","",,"","",84,"%",
"200511WQPL.csv","2008MAY29155944","1122052667","A6",  32.69267,-117.26967,"20051122",914,1,"m","",1.2988,"ug/L","",24.392,"sigma-t","",7.13663,"mg/L","",33.3648,"ppt","",,"","",16.4,"C","",8.254,"pH","",,"","",88,"%",
"200511WQPL.csv","2008MAY29155944","1122052668","A6",  32.69267,-117.26967,"20051122",914,12,"m","",2.0228,"ug/L","",24.8038,"sigma-t","",5.86919,"mg/L","",33.3691,"ppt","",,"","",14.6,"C","",8.129,"pH","",,"","",86,"%",
"200511WQPL.csv","2008MAY29155944","1122052669","A6",  32.69267,-117.26967,"20051122",914,18,"m","",1.4866,"ug/L","",24.9003,"sigma-t","",5.40804,"mg/L","",33.3791,"ppt","",,"","",14.2,"C","",8.067,"pH","",,"","",86,"%",
"200511WQPL.csv","2008MAY29155944","1122052670","A7",  32.67550,-117.26683,"20051122",853,1,"m","",.6652,"ug/L","",24.4108,"sigma-t","",5.47765,"mg/L","",33.3656,"ppt","",,"","",16.4,"C","",8.223,"pH","",,"","",81,"%",
"200511WQPL.csv","2008MAY29155944","1122052671","A7",  32.67550,-117.26683,"20051122",853,12,"m","",3.7993,"ug/L","",24.5863,"sigma-t","",6.57469,"mg/L","",33.3841,"ppt","",,"","",15.6,"C","",8.185,"pH","",,"","",85,"%",
"200511WQPL.csv","2008MAY29155944","1122052672","A7",  32.67550,-117.26683,"20051122",853,18,"m","",2.2531,"ug/L","",24.8883,"sigma-t","",5.55265,"mg/L","",33.3702,"ppt","",,"","",14.2,"C","",8.075,"pH","",,"","",85,"%",
"200511WQPL.csv","2008MAY29155944","1122052673","C4",  32.66583,-117.24967,"20051122",1057,1,"m","",.9975,"ug/L","",24.4119,"sigma-t","",6.84924,"mg/L","",33.3759,"ppt","",,"","",16.4,"C","",8.211,"pH","",,"","",86,"%",
"200511WQPL.csv","2008MAY29155944","1122052674","C4",  32.66583,-117.24967,"20051122",1057,3,"m","",1.3389,"ug/L","",24.4562,"sigma-t","",6.87646,"mg/L","",33.3741,"ppt","",,"","",16.2,"C","",8.22,"pH","",,"","",85,"%",
"200511WQPL.csv","2008MAY29155944","1122052675","C4",  32.66583,-117.24967,"20051122",1057,9,"m","",1.9689,"ug/L","",24.4707,"sigma-t","",6.74224,"mg/L","",33.3703,"ppt","",,"","",16.1,"C","",8.208,"pH","",,"","",84,"%",
"200511WQPL.csv","2008MAY29155944","1122052676","C5",  32.67917,-117.25667,"20051122",1044,1,"m","",2.0595,"ug/L","",24.3608,"sigma-t","",5.94524,"mg/L","",33.4174,"ppt","",,"","",16.7,"C","",8.027,"pH","",,"","",63,"%",
"200511WQPL.csv","2008MAY29155944","1122052677","C5",  32.67917,-117.25667,"20051122",1044,3,"m","",2.526,"ug/L","",24.401,"sigma-t","",5.83964,"mg/L","",33.4222,"ppt","",,"","",16.6,"C","",8.031,"pH","",,"","",62,"%",
"200511WQPL.csv","2008MAY29155944","1122052678","C5",  32.67917,-117.25667,"20051122",1044,9,"m","",2.2893,"ug/L","",24.4256,"sigma-t","",5.40421,"mg/L","",33.4139,"ppt","",,"","",16.4,"C","",7.995,"pH","",,"","",47,"%",
"200511WQPL.csv","2008MAY29155944","1122052679","C6",  32.69367,-117.26133,"20051122",1033,1,"m","",2.5282,"ug/L","",24.3408,"sigma-t","",7.49123,"mg/L","",33.3847,"ppt","",,"","",16.7,"C","",8.255,"pH","",,"","",80,"%",
"200511WQPL.csv","2008MAY29155944","1122052680","C6",  32.69367,-117.26133,"20051122",1033,3,"m","",7.1152,"ug/L","",24.3934,"sigma-t","",7.20197,"mg/L","",33.3898,"ppt","",,"","",16.5,"C","",8.227,"pH","",,"","",78,"%",
"200511WQPL.csv","2008MAY29155944","1122052681","C6",  32.69367,-117.26133,"20051122",1033,9,"m","",1.4372,"ug/L","",24.4255,"sigma-t","",6.13824,"mg/L","",33.3803,"ppt","",,"","",16.3,"C","",8.127,"pH","",,"","",71,"%",
"200511WQPL.csv","2008MAY29155944","1122052682","C7",  32.71633,-117.27217,"20051122",957,1,"m","",3.1892,"ug/L","",24.3796,"sigma-t","",7.2875,"mg/L","",33.3684,"ppt","",,"","",16.5,"C","",8.257,"pH","",,"","",81,"%",
"200511WQPL.csv","2008MAY29155944","1122052683","C7",  32.71633,-117.27217,"20051122",957,12,"m","",2.5031,"ug/L","",24.6355,"sigma-t","",6.12937,"mg/L","",33.3962,"ppt","",,"","",15.5,"C","",8.144,"pH","",,"","",86,"%",
"200511WQPL.csv","2008MAY29155944","1122052684","C7",  32.71633,-117.27217,"20051122",957,18,"m","",1.1386,"ug/L","",24.7489,"sigma-t","",5.48088,"mg/L","",33.3721,"ppt","",,"","",14.9,"C","",8.074,"pH","",,"","",86,"%",
"200511WQPL.csv","2008MAY29155944","1122052685","C8",  32.73267,-117.27333,"20051122",1013,1,"m","",2.9134,"ug/L","",24.3839,"sigma-t","",7.62592,"mg/L","",33.3793,"ppt","",,"","",16.5,"C","",8.281,"pH","",,"","",79,"%",
"200511WQPL.csv","2008MAY29155944","1122052686","C8",  32.73267,-117.27333,"20051122",1013,12,"m","",2.6594,"ug/L","",24.524,"sigma-t","",6.02154,"mg/L","",33.3846,"ppt","",,"","",15.9,"C","",8.138,"pH","",,"","",84,"%",
"200511WQPL.csv","2008MAY29155944","1122052687","C8",  32.73267,-117.27333,"20051122",1013,18,"m","",1.9198,"ug/L","",24.7729,"sigma-t","",5.47388,"mg/L","",33.3974,"ppt","",,"","",14.8,"C","",8.091,"pH","",,"","",85,"%",
"200511WQPL.csv","2008MAY29155944","1128052700","A1",  32.65933,-117.26200,"20051128",747,1,"m","",2.576,"ug/L","",24.5066,"sigma-t","",6.63286,"mg/L","",33.3811,"ppt","",,"","",16,"C","",8.303,"pH","",,"","",87,"%",
"200511WQPL.csv","2008MAY29155944","1128052701","A1",  32.65933,-117.26200,"20051128",747,12,"m","",1.6912,"ug/L","",24.6626,"sigma-t","",6.12034,"mg/L","",33.3849,"ppt","",,"","",15.3,"C","",8.26,"pH","",,"","",87,"%",
"200511WQPL.csv","2008MAY29155944","1128052702","A1",  32.65933,-117.26200,"20051128",747,18,"m","",1.0764,"ug/L","",24.8735,"sigma-t","",5.43327,"mg/L","",33.3619,"ppt","",,"","",14.2,"C","",8.186,"pH","",,"","",85,"%",
"200511WQPL.csv","2008MAY29155944","1128052703","A6",  32.69267,-117.26967,"20051128",841,1,"m","",3.2652,"ug/L","",24.5063,"sigma-t","",6.75054,"mg/L","",33.3883,"ppt","",,"","",16,"C","",8.348,"pH","",,"","",81,"%",
"200511WQPL.csv","2008MAY29155944","1128052704","A6",  32.69267,-117.26967,"20051128",841,12,"m","",8.3602,"ug/L","",24.5467,"sigma-t","",6.62874,"mg/L","",33.3778,"ppt","",,"","",15.8,"C","",8.326,"pH","",,"","",83,"%",
"200511WQPL.csv","2008MAY29155944","1128052705","A6",  32.69267,-117.26967,"20051128",841,18,"m","",1.496,"ug/L","",24.708,"sigma-t","",5.88227,"mg/L","",33.3688,"ppt","",,"","",15,"C","",8.249,"pH","",,"","",87,"%",
"200511WQPL.csv","2008MAY29155944","1128052706","A7",  32.67550,-117.26683,"20051128",820,1,"m","",4.4555,"ug/L","",24.4959,"sigma-t","",6.72441,"mg/L","",33.388,"ppt","",,"","",16.1,"C","",8.343,"pH","",,"","",82,"%",
"200511WQPL.csv","2008MAY29155944","1128052707","A7",  32.67550,-117.26683,"20051128",820,12,"m","",6.3982,"ug/L","",24.4976,"sigma-t","",6.64069,"mg/L","",33.3884,"ppt","",,"","",16,"C","",8.34,"pH","",,"","",80,"%",
"200511WQPL.csv","2008MAY29155944","1128052708","A7",  32.67550,-117.26683,"20051128",820,18,"m","",1.6924,"ug/L","",24.7486,"sigma-t","",5.78175,"mg/L","",33.388,"ppt","",,"","",14.9,"C","",8.252,"pH","",,"","",86,"%",
"200511WQPL.csv","2008MAY29155944","1128052709","C4",  32.66583,-117.24967,"20051128",1000,1,"m","",1.2929,"ug/L","",24.5064,"sigma-t","",6.39104,"mg/L","",33.3895,"ppt","",,"","",16,"C","",8.322,"pH","",,"","",82,"%",
"200511WQPL.csv","2008MAY29155944","1128052710","C4",  32.66583,-117.24967,"20051128",1000,3,"m","",1.7435,"ug/L","",24.5098,"sigma-t","",6.36852,"mg/L","",33.3887,"ppt","",,"","",16,"C","",8.319,"pH","",,"","",81,"%",